contact:dominique.lefevre@mio.osupytheas.fr, maurice.libes@osupytheas.fr, didier.mallarino@osupytheas.fr
Project:EMSO http://www.emso-fr.org/EMSO-France
Depth: 2436.0 m
Title:EMSO Ligure Ouest : Data MII capteur CSTAR
DateTime,Latitude,Longitude,Instrument_Serial,Reference_Counts,Signal_Counts,Corrected_Signal_raw_counts,Calculated_Beam_c_inverse_meters,Internal_thermistor_counts
DateTime,Latitude,Longitude,Instrument_Serial,Reference_Counts,Signal_Counts,Corrected_Signal_raw_counts,Calculated_Beam_c_inverse_meters,Internal_thermistor_counts
2019-10-01T00:00:55,42.805,6.029,CST-1368DR,7721,10810,15351,0.068,551
2019-10-01T00:03:57,42.805,6.029,CST-1368DR,7721,10811,15352,0.068,551
2019-10-01T00:06:59,42.805,6.029,CST-1368DR,7721,10813,15355,0.067,551
2019-10-01T00:10:00,42.805,6.029,CST-1368DR,7721,10812,15354,0.068,551
2019-10-01T00:13:02,42.805,6.029,CST-1368DR,7721,10812,15353,0.068,551
2019-10-01T00:16:04,42.805,6.029,CST-1368DR,7721,10812,15354,0.068,551
2019-10-01T00:19:05,42.805,6.029,CST-1368DR,7721,10813,15354,0.068,551
2019-10-01T00:22:07,42.805,6.029,CST-1368DR,7721,10813,15355,0.067,550
2019-10-01T00:25:08,42.805,6.029,CST-1368DR,7721,10812,15354,0.068,551
2019-10-01T00:28:10,42.805,6.029,CST-1368DR,7721,10811,15352,0.068,551
2019-10-01T00:31:12,42.805,6.029,CST-1368DR,7721,10812,15354,0.068,551
2019-10-01T00:34:13,42.805,6.029,CST-1368DR,7721,10812,15353,0.068,551
2019-10-01T00:37:15,42.805,6.029,CST-1368DR,7721,10811,15352,0.068,551
2019-10-01T00:40:17,42.805,6.029,CST-1368DR,7721,10809,15349,0.069,551
2019-10-01T00:43:18,42.805,6.029,CST-1368DR,7721,10809,15349,0.069,551
2019-10-01T00:46:20,42.805,6.029,CST-1368DR,7721,10811,15352,0.068,551
2019-10-01T00:49:22,42.805,6.029,CST-1368DR,7721,10811,15352,0.068,550
2019-10-01T00:52:23,42.805,6.029,CST-1368DR,7721,10812,15353,0.068,551
2019-10-01T00:55:25,42.805,6.029,CST-1368DR,7720,10811,15354,0.068,551
2019-10-01T00:58:27,42.805,6.029,CST-1368DR,7720,10811,15354,0.068,551
2019-10-01T01:01:29,42.805,6.029,CST-1368DR,7720,10812,15355,0.067,551
2019-10-01T01:04:30,42.805,6.029,CST-1368DR,7721,10812,15353,0.068,551
2019-10-01T01:07:32,42.805,6.029,CST-1368DR,7720,10811,15354,0.068,551
2019-10-01T01:10:34,42.805,6.029,CST-1368DR,7721,10807,15346,0.070,551
2019-10-01T01:13:35,42.805,6.029,CST-1368DR,7721,10811,15352,0.068,551
2019-10-01T01:16:37,42.805,6.029,CST-1368DR,7721,10810,15350,0.069,550
2019-10-01T01:19:39,42.805,6.029,CST-1368DR,7720,10811,15354,0.068,551
2019-10-01T01:22:41,42.805,6.029,CST-1368DR,7720,10762,15284,0.086,551
2019-10-01T01:25:43,42.805,6.029,CST-1368DR,7720,10810,15353,0.068,551
2019-10-01T01:28:45,42.805,6.029,CST-1368DR,7721,10812,15353,0.068,551
2019-10-01T01:31:46,42.805,6.029,CST-1368DR,7720,10811,15354,0.068,550
2019-10-01T01:34:48,42.805,6.029,CST-1368DR,7720,10808,15350,0.069,551
2019-10-01T01:37:50,42.805,6.029,CST-1368DR,7720,10809,15351,0.068,551
2019-10-01T01:40:51,42.805,6.029,CST-1368DR,7720,10808,15350,0.069,550
2019-10-01T01:43:53,42.805,6.029,CST-1368DR,7720,10810,15352,0.068,551
2019-10-01T01:46:55,42.805,6.029,CST-1368DR,7720,10811,15354,0.068,551
2019-10-01T01:49:56,42.805,6.029,CST-1368DR,7720,10811,15354,0.068,551
2019-10-01T01:52:58,42.805,6.029,CST-1368DR,7720,10810,15353,0.068,551
2019-10-01T01:56:00,42.805,6.029,CST-1368DR,7720,10788,15322,0.076,551
2019-10-01T01:59:01,42.805,6.029,CST-1368DR,7720,10810,15353,0.068,551
2019-10-01T02:02:03,42.805,6.029,CST-1368DR,7720,10808,15349,0.069,551
2019-10-01T02:05:05,42.805,6.029,CST-1368DR,7720,10808,15350,0.069,551
2019-10-01T02:08:06,42.805,6.029,CST-1368DR,7720,10811,15354,0.068,550
2019-10-01T02:11:08,42.805,6.029,CST-1368DR,7720,10812,15355,0.067,551
2019-10-01T02:14:09,42.805,6.029,CST-1368DR,7717,10361,14720,0.236,551
2019-10-01T02:17:11,42.805,6.029,CST-1368DR,7720,10810,15353,0.068,551
2019-10-01T02:20:13,42.805,6.029,CST-1368DR,7720,10812,15356,0.067,551
2019-10-01T02:23:14,42.805,6.029,CST-1368DR,7720,10810,15353,0.068,550
2019-10-01T02:26:16,42.805,6.029,CST-1368DR,7720,10806,15346,0.070,551
2019-10-01T02:29:18,42.805,6.029,CST-1368DR,7720,10810,15353,0.068,551
2019-10-01T02:32:19,42.805,6.029,CST-1368DR,7720,10810,15353,0.068,551
2019-10-01T02:35:21,42.805,6.029,CST-1368DR,7720,10809,15350,0.069,551
2019-10-01T02:38:23,42.805,6.029,CST-1368DR,7720,10808,15350,0.069,551
2019-10-01T02:41:24,42.805,6.029,CST-1368DR,7720,10811,15354,0.068,551
2019-10-01T02:44:26,42.805,6.029,CST-1368DR,7720,10811,15353,0.068,551
2019-10-01T02:47:27,42.805,6.029,CST-1368DR,7720,10811,15354,0.068,551
2019-10-01T02:50:29,42.805,6.029,CST-1368DR,7720,10811,15354,0.068,551
2019-10-01T02:53:31,42.805,6.029,CST-1368DR,7720,10811,15354,0.068,551
2019-10-01T02:56:32,42.805,6.029,CST-1368DR,7720,10811,15354,0.068,551
2019-10-01T02:59:34,42.805,6.029,CST-1368DR,7720,10812,15355,0.067,551
2019-10-01T03:02:36,42.805,6.029,CST-1368DR,7720,10811,15354,0.068,551
2019-10-01T03:05:37,42.805,6.029,CST-1368DR,7720,10811,15354,0.068,551
2019-10-01T03:08:39,42.805,6.029,CST-1368DR,7719,10730,15240,0.097,551
2019-10-01T03:11:41,42.805,6.029,CST-1368DR,7717,10743,15263,0.091,551
2019-10-01T03:14:42,42.805,6.029,CST-1368DR,7720,10811,15353,0.068,551
2019-10-01T03:17:44,42.805,6.029,CST-1368DR,7720,10810,15352,0.068,551
2019-10-01T03:20:45,42.805,6.029,CST-1368DR,7720,10810,15352,0.068,551
2019-10-01T03:23:47,42.805,6.029,CST-1368DR,7719,10811,15355,0.067,551
2019-10-01T03:26:49,42.805,6.029,CST-1368DR,7720,10812,15355,0.067,551
2019-10-01T03:29:50,42.805,6.029,CST-1368DR,7720,10810,15353,0.068,551
2019-10-01T03:32:52,42.805,6.029,CST-1368DR,7720,10809,15350,0.069,551
2019-10-01T03:35:54,42.805,6.029,CST-1368DR,7719,10809,15353,0.068,551
2019-10-01T03:38:55,42.805,6.029,CST-1368DR,7719,10809,15353,0.068,551
2019-10-01T03:41:57,42.805,6.029,CST-1368DR,7719,10809,15353,0.068,551
2019-10-01T03:44:58,42.805,6.029,CST-1368DR,7719,10810,15355,0.067,551
2019-10-01T03:48:00,42.805,6.029,CST-1368DR,7719,10811,15356,0.067,551
2019-10-01T03:51:02,42.805,6.029,CST-1368DR,7719,10807,15350,0.069,551
2019-10-01T03:54:03,42.805,6.029,CST-1368DR,7719,10810,15354,0.068,551
2019-10-01T03:57:05,42.805,6.029,CST-1368DR,7719,10809,15353,0.068,551
2019-10-01T04:00:07,42.805,6.029,CST-1368DR,7719,10809,15353,0.068,551
2019-10-01T04:03:08,42.805,6.029,CST-1368DR,7719,10808,15352,0.068,551
2019-10-01T04:06:10,42.805,6.029,CST-1368DR,7719,10812,15356,0.067,551
2019-10-01T04:09:12,42.805,6.029,CST-1368DR,7719,10812,15356,0.067,551
2019-10-01T04:12:13,42.805,6.029,CST-1368DR,7719,10811,15355,0.067,550
2019-10-01T04:15:15,42.805,6.029,CST-1368DR,7719,10811,15355,0.067,550
2019-10-01T04:18:16,42.805,6.029,CST-1368DR,7719,10809,15353,0.068,551
2019-10-01T04:21:18,42.805,6.029,CST-1368DR,7719,10808,15352,0.068,550
2019-10-01T04:24:20,42.805,6.029,CST-1368DR,7719,10810,15354,0.068,551
2019-10-01T04:27:21,42.805,6.029,CST-1368DR,7719,10808,15351,0.068,551
2019-10-01T04:30:23,42.805,6.029,CST-1368DR,7719,10809,15353,0.068,551
2019-10-01T04:33:25,42.805,6.029,CST-1368DR,7719,10810,15355,0.067,551
2019-10-01T04:36:26,42.805,6.029,CST-1368DR,7719,10810,15354,0.068,551
2019-10-01T04:39:28,42.805,6.029,CST-1368DR,7719,10811,15356,0.067,551
2019-10-01T04:42:29,42.805,6.029,CST-1368DR,7719,10808,15352,0.068,550
2019-10-01T04:45:31,42.805,6.029,CST-1368DR,7719,10809,15353,0.068,551
2019-10-01T04:48:33,42.805,6.029,CST-1368DR,7719,10810,15355,0.067,551
2019-10-01T04:51:34,42.805,6.029,CST-1368DR,7719,10809,15352,0.068,550
2019-10-01T04:54:36,42.805,6.029,CST-1368DR,7719,10808,15352,0.068,551
2019-10-01T04:57:38,42.805,6.029,CST-1368DR,7719,10807,15350,0.069,551
2019-10-01T05:00:39,42.805,6.029,CST-1368DR,7719,10811,15355,0.067,551
2019-10-01T05:03:41,42.805,6.029,CST-1368DR,7719,10807,15350,0.069,551
2019-10-01T05:06:43,42.805,6.029,CST-1368DR,7719,10811,15355,0.067,550
2019-10-01T05:09:44,42.805,6.029,CST-1368DR,7719,10808,15352,0.068,551
2019-10-01T05:12:46,42.805,6.029,CST-1368DR,7719,10809,15353,0.068,551
2019-10-01T05:15:47,42.805,6.029,CST-1368DR,7719,10808,15352,0.068,550
2019-10-01T05:18:49,42.805,6.029,CST-1368DR,7718,10698,15197,0.109,551
2019-10-01T05:21:51,42.805,6.029,CST-1368DR,7719,10810,15354,0.068,551
2019-10-01T05:24:52,42.805,6.029,CST-1368DR,7719,10810,15355,0.067,551
2019-10-01T05:27:54,42.805,6.029,CST-1368DR,7719,10811,15355,0.067,551
2019-10-01T05:30:56,42.805,6.029,CST-1368DR,7719,10811,15355,0.067,551
2019-10-01T05:33:57,42.805,6.029,CST-1368DR,7719,10809,15353,0.068,551
2019-10-01T05:36:59,42.805,6.029,CST-1368DR,7719,10810,15355,0.067,550
2019-10-01T05:40:00,42.805,6.029,CST-1368DR,7719,10809,15353,0.068,551
2019-10-01T05:43:02,42.805,6.029,CST-1368DR,7719,10809,15353,0.068,551
2019-10-01T05:46:04,42.805,6.029,CST-1368DR,7719,10809,15353,0.068,551
2019-10-01T05:49:05,42.805,6.029,CST-1368DR,7719,10809,15352,0.068,551
2019-10-01T05:52:07,42.805,6.029,CST-1368DR,7719,10809,15353,0.068,551
2019-10-01T05:55:09,42.805,6.029,CST-1368DR,7719,10808,15352,0.068,551
2019-10-01T05:58:10,42.805,6.029,CST-1368DR,7719,10810,15354,0.068,551
2019-10-01T06:01:12,42.805,6.029,CST-1368DR,7719,10809,15353,0.068,551
2019-10-01T06:04:13,42.805,6.029,CST-1368DR,7719,10811,15356,0.067,551
2019-10-01T06:07:15,42.805,6.029,CST-1368DR,7719,10810,15354,0.068,550
2019-10-01T06:10:17,42.805,6.029,CST-1368DR,7719,10807,15350,0.069,551
2019-10-01T06:13:18,42.805,6.029,CST-1368DR,7719,10810,15354,0.068,551
2019-10-01T06:16:20,42.805,6.029,CST-1368DR,7719,10809,15353,0.068,551
2019-10-01T06:19:22,42.805,6.029,CST-1368DR,7719,10808,15352,0.068,551
2019-10-01T06:22:23,42.805,6.029,CST-1368DR,7719,10809,15352,0.068,551
2019-10-01T06:25:25,42.805,6.029,CST-1368DR,7719,10809,15353,0.068,551
2019-10-01T06:28:27,42.805,6.029,CST-1368DR,7719,10811,15355,0.067,550
2019-10-01T06:31:28,42.805,6.029,CST-1368DR,7719,10808,15351,0.068,550
2019-10-01T06:34:30,42.805,6.029,CST-1368DR,7718,10806,15351,0.068,551
2019-10-01T06:37:31,42.805,6.029,CST-1368DR,7718,10807,15352,0.068,551
2019-10-01T06:40:33,42.805,6.029,CST-1368DR,7718,10809,15355,0.067,551
2019-10-01T06:43:35,42.805,6.029,CST-1368DR,7718,10811,15357,0.067,551
2019-10-01T06:46:36,42.805,6.029,CST-1368DR,7718,10809,15354,0.068,551
2019-10-01T06:49:38,42.805,6.029,CST-1368DR,7718,10810,15356,0.067,551
2019-10-01T06:52:40,42.805,6.029,CST-1368DR,7718,10809,15354,0.068,551
2019-10-01T06:55:41,42.805,6.029,CST-1368DR,7718,10809,15355,0.067,550
2019-10-01T06:58:43,42.805,6.029,CST-1368DR,7718,10809,15355,0.067,551
2019-10-01T07:01:44,42.805,6.029,CST-1368DR,7718,10811,15357,0.067,550
2019-10-01T07:04:46,42.805,6.029,CST-1368DR,7718,10810,15357,0.067,551
2019-10-01T07:07:48,42.805,6.029,CST-1368DR,7718,10808,15354,0.068,551
2019-10-01T07:10:49,42.805,6.029,CST-1368DR,7718,10810,15356,0.067,551
2019-10-01T07:13:51,42.805,6.029,CST-1368DR,7718,10811,15357,0.067,551
2019-10-01T07:16:53,42.805,6.029,CST-1368DR,7718,10809,15355,0.067,551
2019-10-01T07:19:54,42.805,6.029,CST-1368DR,7718,10811,15357,0.067,550
2019-10-01T07:22:56,42.805,6.029,CST-1368DR,7718,10808,15353,0.068,551
2019-10-01T07:25:58,42.805,6.029,CST-1368DR,7718,10809,15355,0.067,551
2019-10-01T07:28:59,42.805,6.029,CST-1368DR,7718,10810,15356,0.067,551
2019-10-01T07:32:01,42.805,6.029,CST-1368DR,7718,10807,15352,0.068,551
2019-10-01T07:35:03,42.805,6.029,CST-1368DR,7718,10810,15356,0.067,551
2019-10-01T07:38:05,42.805,6.029,CST-1368DR,7718,10809,15354,0.068,551
2019-10-01T07:41:06,42.805,6.029,CST-1368DR,7718,10809,15355,0.067,551
2019-10-01T07:44:08,42.805,6.029,CST-1368DR,7718,10810,15356,0.067,551
2019-10-01T07:47:10,42.805,6.029,CST-1368DR,7718,10810,15356,0.067,551
2019-10-01T07:50:11,42.805,6.029,CST-1368DR,7718,10809,15354,0.068,551
2019-10-01T07:53:13,42.805,6.029,CST-1368DR,7718,10809,15354,0.068,551
2019-10-01T07:56:14,42.805,6.029,CST-1368DR,7718,10809,15355,0.067,551
2019-10-01T07:59:16,42.805,6.029,CST-1368DR,7718,10808,15353,0.068,551
2019-10-01T08:02:18,42.805,6.029,CST-1368DR,7718,10810,15357,0.067,551
2019-10-01T08:05:19,42.805,6.029,CST-1368DR,7718,10809,15354,0.068,551
2019-10-01T08:08:21,42.805,6.029,CST-1368DR,7718,10808,15354,0.068,551
2019-10-01T08:11:23,42.805,6.029,CST-1368DR,7718,10808,15354,0.068,551
2019-10-01T08:14:24,42.805,6.029,CST-1368DR,7718,10809,15354,0.068,550
2019-10-01T08:17:26,42.805,6.029,CST-1368DR,7718,10810,15356,0.067,551
2019-10-01T08:20:27,42.805,6.029,CST-1368DR,7718,10809,15354,0.068,551
2019-10-01T08:23:29,42.805,6.029,CST-1368DR,7718,10810,15356,0.067,551
2019-10-01T08:26:31,42.805,6.029,CST-1368DR,7718,10806,15351,0.068,551
2019-10-01T08:29:32,42.805,6.029,CST-1368DR,7718,10807,15352,0.068,551
2019-10-01T08:32:34,42.805,6.029,CST-1368DR,7718,10809,15354,0.068,551
2019-10-01T08:35:36,42.805,6.029,CST-1368DR,7718,10810,15356,0.067,551
2019-10-01T08:38:37,42.805,6.029,CST-1368DR,7718,10806,15350,0.069,551
2019-10-01T08:41:39,42.805,6.029,CST-1368DR,7718,10808,15353,0.068,550
2019-10-01T08:44:40,42.805,6.029,CST-1368DR,7718,10808,15353,0.068,550
2019-10-01T08:47:42,42.805,6.029,CST-1368DR,7718,10810,15356,0.067,551
2019-10-01T08:50:44,42.805,6.029,CST-1368DR,7718,10809,15354,0.068,551
2019-10-01T08:53:45,42.805,6.029,CST-1368DR,7718,10809,15354,0.068,551
2019-10-01T08:56:48,42.805,6.029,CST-1368DR,7717,10805,15351,0.068,551
2019-10-01T08:59:49,42.805,6.029,CST-1368DR,7717,10808,15356,0.067,551
2019-10-01T09:02:51,42.805,6.029,CST-1368DR,7717,10807,15354,0.068,551
2019-10-01T09:05:52,42.805,6.029,CST-1368DR,7717,10809,15356,0.067,551
2019-10-01T09:08:54,42.805,6.029,CST-1368DR,7717,10805,15351,0.068,551
2019-10-01T09:11:56,42.805,6.029,CST-1368DR,7717,10808,15355,0.067,550
2019-10-01T09:14:57,42.805,6.029,CST-1368DR,7717,10799,15342,0.071,550
2019-10-01T09:17:59,42.805,6.029,CST-1368DR,7717,10809,15357,0.067,550
2019-10-01T09:21:01,42.805,6.029,CST-1368DR,7717,10809,15356,0.067,551
2019-10-01T09:24:02,42.805,6.029,CST-1368DR,7717,10808,15356,0.067,551
2019-10-01T09:27:04,42.805,6.029,CST-1368DR,7717,10809,15356,0.067,551
2019-10-01T09:30:05,42.805,6.029,CST-1368DR,7717,10808,15355,0.067,551
2019-10-01T09:33:07,42.805,6.029,CST-1368DR,7717,10808,15355,0.067,551
2019-10-01T09:36:09,42.805,6.029,CST-1368DR,7717,10808,15356,0.067,551
2019-10-01T09:39:10,42.805,6.029,CST-1368DR,7717,10808,15356,0.067,551
2019-10-01T09:42:12,42.805,6.029,CST-1368DR,7717,10808,15356,0.067,551
2019-10-01T09:45:14,42.805,6.029,CST-1368DR,7717,10807,15353,0.068,551
2019-10-01T09:48:15,42.805,6.029,CST-1368DR,7717,10807,15354,0.068,551
2019-10-01T09:51:17,42.805,6.029,CST-1368DR,7717,10808,15355,0.067,550
2019-10-01T09:54:19,42.805,6.029,CST-1368DR,7717,10808,15355,0.067,551
2019-10-01T09:57:20,42.805,6.029,CST-1368DR,7717,10809,15356,0.067,551
2019-10-01T10:00:22,42.805,6.029,CST-1368DR,7717,10807,15353,0.068,550
2019-10-01T10:03:23,42.805,6.029,CST-1368DR,7717,10808,15355,0.067,551
2019-10-01T10:06:25,42.805,6.029,CST-1368DR,7717,10809,15356,0.067,551
2019-10-01T10:09:27,42.805,6.029,CST-1368DR,7717,10809,15356,0.067,551
2019-10-01T10:12:28,42.805,6.029,CST-1368DR,7717,10805,15351,0.068,551
2019-10-01T10:15:30,42.805,6.029,CST-1368DR,7717,10807,15353,0.068,550
2019-10-01T10:18:32,42.805,6.029,CST-1368DR,7717,10805,15351,0.068,551
2019-10-01T10:21:33,42.805,6.029,CST-1368DR,7717,10807,15353,0.068,551
2019-10-01T10:24:35,42.805,6.029,CST-1368DR,7717,10808,15355,0.067,551
2019-10-01T10:27:37,42.805,6.029,CST-1368DR,7717,10808,15355,0.067,551
2019-10-01T10:30:38,42.805,6.029,CST-1368DR,7717,10807,15354,0.068,551
2019-10-01T10:33:40,42.805,6.029,CST-1368DR,7717,10807,15353,0.068,551
2019-10-01T10:36:42,42.805,6.029,CST-1368DR,7717,10807,15354,0.068,551
2019-10-01T10:39:43,42.805,6.029,CST-1368DR,7716,10807,15355,0.067,551
2019-10-01T10:42:45,42.805,6.029,CST-1368DR,7717,10808,15356,0.067,551
2019-10-01T10:45:47,42.805,6.029,CST-1368DR,7717,10806,15353,0.068,551
2019-10-01T10:48:48,42.805,6.029,CST-1368DR,7717,10808,15355,0.067,551
2019-10-01T10:51:50,42.805,6.029,CST-1368DR,7717,10804,15350,0.069,551
2019-10-01T10:54:52,42.805,6.029,CST-1368DR,7716,10781,15319,0.077,551
2019-10-01T10:57:53,42.805,6.029,CST-1368DR,7717,10808,15355,0.067,551
2019-10-01T11:00:55,42.805,6.029,CST-1368DR,7716,10807,15355,0.067,551
2019-10-01T11:03:57,42.805,6.029,CST-1368DR,7716,10807,15356,0.067,551
2019-10-01T11:06:58,42.805,6.029,CST-1368DR,7716,10808,15356,0.067,551
2019-10-01T11:10:00,42.805,6.029,CST-1368DR,7716,10807,15355,0.067,551
2019-10-01T11:13:02,42.805,6.029,CST-1368DR,7716,10808,15357,0.067,550
2019-10-01T11:16:03,42.805,6.029,CST-1368DR,7716,10807,15355,0.067,551
2019-10-01T11:19:05,42.805,6.029,CST-1368DR,7716,10806,15355,0.067,551
2019-10-01T11:22:06,42.805,6.029,CST-1368DR,7716,10806,15354,0.068,551
2019-10-01T11:25:08,42.805,6.029,CST-1368DR,7716,10806,15354,0.068,551
2019-10-01T11:28:10,42.805,6.029,CST-1368DR,7716,10805,15353,0.068,551
2019-10-01T11:31:11,42.805,6.029,CST-1368DR,7716,10805,15352,0.068,551
2019-10-01T11:34:13,42.805,6.029,CST-1368DR,7716,10806,15354,0.068,551
2019-10-01T11:37:15,42.805,6.029,CST-1368DR,7716,10806,15354,0.068,551
2019-10-01T11:40:16,42.805,6.029,CST-1368DR,7716,10777,15313,0.078,551
2019-10-01T11:43:18,42.805,6.029,CST-1368DR,7716,10790,15331,0.074,551
2019-10-01T11:46:19,42.805,6.029,CST-1368DR,7716,10794,15337,0.072,550
2019-10-01T11:49:21,42.805,6.029,CST-1368DR,7715,10801,15349,0.069,551
2019-10-01T11:52:23,42.805,6.029,CST-1368DR,7715,10802,15350,0.069,551
2019-10-01T11:55:24,42.805,6.029,CST-1368DR,7716,10805,15352,0.068,551
2019-10-01T11:58:26,42.805,6.029,CST-1368DR,7716,10804,15351,0.068,551
2019-10-01T12:01:28,42.805,6.029,CST-1368DR,7716,10805,15353,0.068,551
2019-10-01T12:04:29,42.805,6.029,CST-1368DR,7716,10805,15352,0.068,551
2019-10-01T12:07:31,42.805,6.029,CST-1368DR,7715,10804,15353,0.068,551
2019-10-01T12:10:33,42.805,6.029,CST-1368DR,7715,10806,15355,0.067,551
2019-10-01T12:13:34,42.805,6.029,CST-1368DR,7715,10805,15354,0.068,551
2019-10-01T12:16:36,42.805,6.029,CST-1368DR,7715,10804,15353,0.068,550
2019-10-01T12:19:37,42.805,6.029,CST-1368DR,7715,10805,15354,0.068,551
2019-10-01T12:22:39,42.805,6.029,CST-1368DR,7715,10804,15354,0.068,551
2019-10-01T12:25:41,42.805,6.029,CST-1368DR,7715,10804,15353,0.068,551
2019-10-01T12:28:42,42.805,6.029,CST-1368DR,7715,10805,15354,0.068,551
2019-10-01T12:31:44,42.805,6.029,CST-1368DR,7715,10805,15355,0.067,551
2019-10-01T12:34:46,42.805,6.029,CST-1368DR,7715,10806,15356,0.067,550
2019-10-01T12:37:47,42.805,6.029,CST-1368DR,7715,10806,15355,0.067,551
2019-10-01T12:40:49,42.805,6.029,CST-1368DR,7715,10805,15354,0.068,551
2019-10-01T12:43:50,42.805,6.029,CST-1368DR,7715,10807,15357,0.067,551
2019-10-01T12:46:52,42.805,6.029,CST-1368DR,7715,10807,15358,0.067,551
2019-10-01T12:49:54,42.805,6.029,CST-1368DR,7715,10802,15350,0.069,551
2019-10-01T12:52:55,42.805,6.029,CST-1368DR,7715,10806,15356,0.067,551
2019-10-01T12:55:57,42.805,6.029,CST-1368DR,7715,10804,15354,0.068,551
2019-10-01T12:58:59,42.805,6.029,CST-1368DR,7715,10806,15356,0.067,551
2019-10-01T13:02:00,42.805,6.029,CST-1368DR,7715,10807,15357,0.067,551
2019-10-01T13:05:02,42.805,6.029,CST-1368DR,7715,10804,15354,0.068,551
2019-10-01T13:08:03,42.805,6.029,CST-1368DR,7715,10807,15357,0.067,551
2019-10-01T13:11:05,42.805,6.029,CST-1368DR,7715,10805,15354,0.068,551
2019-10-01T13:14:07,42.805,6.029,CST-1368DR,7715,10805,15354,0.068,551
2019-10-01T13:17:08,42.805,6.029,CST-1368DR,7715,10804,15354,0.068,551
2019-10-01T13:20:10,42.805,6.029,CST-1368DR,7715,10806,15355,0.067,551
2019-10-01T13:23:12,42.805,6.029,CST-1368DR,7715,10803,15352,0.068,551
2019-10-01T13:26:13,42.805,6.029,CST-1368DR,7715,10798,15344,0.070,551
2019-10-01T13:29:15,42.805,6.029,CST-1368DR,7715,10803,15352,0.068,551
2019-10-01T13:32:16,42.805,6.029,CST-1368DR,7715,10800,15348,0.069,551
2019-10-01T13:35:18,42.805,6.029,CST-1368DR,7715,10803,15351,0.068,551
2019-10-01T13:38:20,42.805,6.029,CST-1368DR,7715,10806,15356,0.067,551
2019-10-01T13:41:21,42.805,6.029,CST-1368DR,7715,10807,15357,0.067,551
2019-10-01T13:44:23,42.805,6.029,CST-1368DR,7715,10802,15350,0.069,550
2019-10-01T13:47:25,42.805,6.029,CST-1368DR,7715,10805,15354,0.068,551
2019-10-01T13:50:26,42.805,6.029,CST-1368DR,7715,10802,15351,0.068,550
2019-10-01T13:53:28,42.805,6.029,CST-1368DR,7715,10805,15355,0.067,551
2019-10-01T13:56:29,42.805,6.029,CST-1368DR,7715,10805,15355,0.067,551
2019-10-01T13:59:31,42.805,6.029,CST-1368DR,7715,10803,15352,0.068,551
2019-10-01T14:02:33,42.805,6.029,CST-1368DR,7715,10802,15350,0.069,551
2019-10-01T14:05:34,42.805,6.029,CST-1368DR,7715,10806,15355,0.067,551
2019-10-01T14:08:36,42.805,6.029,CST-1368DR,7715,10806,15355,0.067,551
2019-10-01T14:11:37,42.805,6.029,CST-1368DR,7715,10803,15352,0.068,551
2019-10-01T14:14:39,42.805,6.029,CST-1368DR,7715,10806,15356,0.067,551
2019-10-01T14:17:41,42.805,6.029,CST-1368DR,7715,10803,15352,0.068,551
2019-10-01T14:20:42,42.805,6.029,CST-1368DR,7715,10803,15352,0.068,551
2019-10-01T14:23:44,42.805,6.029,CST-1368DR,7715,10806,15355,0.067,550
2019-10-01T14:26:46,42.805,6.029,CST-1368DR,7715,10807,15357,0.067,550
2019-10-01T14:29:47,42.805,6.029,CST-1368DR,7715,10806,15356,0.067,551
2019-10-01T14:32:49,42.805,6.029,CST-1368DR,7715,10806,15356,0.067,551
2019-10-01T14:35:51,42.805,6.029,CST-1368DR,7715,10806,15356,0.067,551
2019-10-01T14:38:52,42.805,6.029,CST-1368DR,7715,10806,15356,0.067,551
2019-10-01T14:41:54,42.805,6.029,CST-1368DR,7715,10804,15353,0.068,551
2019-10-01T14:44:56,42.805,6.029,CST-1368DR,7715,10807,15357,0.067,551
2019-10-01T14:47:57,42.805,6.029,CST-1368DR,7715,10805,15355,0.067,551
2019-10-01T14:50:59,42.805,6.029,CST-1368DR,7715,10805,15354,0.068,551
2019-10-01T14:54:01,42.805,6.029,CST-1368DR,7715,10803,15352,0.068,550
2019-10-01T14:57:02,42.805,6.029,CST-1368DR,7715,10803,15352,0.068,551
2019-10-01T15:00:04,42.805,6.029,CST-1368DR,7715,10804,15353,0.068,551
2019-10-01T15:03:06,42.805,6.029,CST-1368DR,7715,10803,15352,0.068,551
2019-10-01T15:06:07,42.805,6.029,CST-1368DR,7715,10805,15354,0.068,551
2019-10-01T15:09:09,42.805,6.029,CST-1368DR,7715,10801,15349,0.069,551
2019-10-01T15:12:11,42.805,6.029,CST-1368DR,7715,10804,15353,0.068,551
2019-10-01T15:15:12,42.805,6.029,CST-1368DR,7715,10804,15353,0.068,551
2019-10-01T15:18:14,42.805,6.029,CST-1368DR,7715,10804,15353,0.068,550
2019-10-01T15:21:15,42.805,6.029,CST-1368DR,7715,10804,15354,0.068,551
2019-10-01T15:24:17,42.805,6.029,CST-1368DR,7715,10804,15353,0.068,551
2019-10-01T15:27:19,42.805,6.029,CST-1368DR,7715,10803,15352,0.068,551
2019-10-01T15:30:20,42.805,6.029,CST-1368DR,7715,10806,15355,0.067,551
2019-10-01T15:33:22,42.805,6.029,CST-1368DR,7715,10803,15352,0.068,551
2019-10-01T15:36:24,42.805,6.029,CST-1368DR,7715,10801,15349,0.069,551
2019-10-01T15:39:25,42.805,6.029,CST-1368DR,7715,10805,15355,0.067,551
2019-10-01T15:42:27,42.805,6.029,CST-1368DR,7714,10803,15354,0.068,551
2019-10-01T15:45:29,42.805,6.029,CST-1368DR,7714,10805,15356,0.067,551
2019-10-01T15:48:30,42.805,6.029,CST-1368DR,7714,10803,15354,0.068,551
2019-10-01T15:51:32,42.805,6.029,CST-1368DR,7715,10805,15354,0.068,551
2019-10-01T15:54:34,42.805,6.029,CST-1368DR,7714,10804,15354,0.068,551
2019-10-01T15:57:35,42.805,6.029,CST-1368DR,7714,10801,15351,0.068,551
2019-10-01T16:00:37,42.805,6.029,CST-1368DR,7714,10804,15354,0.068,551
2019-10-01T16:03:39,42.805,6.029,CST-1368DR,7714,10803,15354,0.068,551
2019-10-01T16:06:40,42.805,6.029,CST-1368DR,7714,10803,15354,0.068,551
2019-10-01T16:09:42,42.805,6.029,CST-1368DR,7714,10804,15355,0.067,551
2019-10-01T16:12:44,42.805,6.029,CST-1368DR,7714,10804,15355,0.067,551
2019-10-01T16:15:45,42.805,6.029,CST-1368DR,7714,10804,15355,0.067,551
2019-10-01T16:18:47,42.805,6.029,CST-1368DR,7714,10802,15352,0.068,551
2019-10-01T16:21:49,42.805,6.029,CST-1368DR,7714,10803,15354,0.068,551
2019-10-01T16:24:50,42.805,6.029,CST-1368DR,7714,10804,15355,0.067,551
2019-10-01T16:27:52,42.805,6.029,CST-1368DR,7714,10804,15355,0.067,551
2019-10-01T16:30:53,42.805,6.029,CST-1368DR,7714,10804,15355,0.067,551
2019-10-01T16:33:55,42.805,6.029,CST-1368DR,7714,10800,15349,0.069,551
2019-10-01T16:36:57,42.805,6.029,CST-1368DR,7714,10805,15356,0.067,551